Voltar ao catálogo

STARLINK-36950

AtivoComunicaçõesVLEO
NORAD 67992·PAYLOAD·🇺🇸 United States

Lançado Feb 27, 2026 de Vandenberg Space Force Base

Loading…

Próximas Passagens (próximas 24 horas)

TLE

AtualizadoSource: CelesTrak SupGP

Época: Sep 15, 2026, 04:10 UTC

1 67992C 26039G   26258.17409722 -.00027662  00000+0 -10017-2 0  2581
2 67992  43.0029  58.9353 0001842 267.9559  13.8997 15.27596876    18

Acompanhe STARLINK-36950 em tempo real com AllMySat

Download on the App Store